www.pogodaiklimat.ru

Погода и климат >> Архив погоды >> Гана >> Сефви Беквай


ПОГОДА в Сефви Беквай

  • Прогноз погоды в Сефви Беквай
  • Монитор погоды в Сефви Беквай

АРХИВ ПОГОДЫ в Сефви Беквай

Время (UTC), дата Ветер
(напр.,м/с)
 
Видим.   Явления Облачность Т
(С)
Тd
(С)
f
(%)
Тe
(С)
Тes
(С)
Комфортность P
(гПа)
Po
(гПа)
Тmin
(С)
Tmax
(С)
R
(мм)
R24
(мм)
S
(см)
09 14.04 ЮЗ 2 14 км 9/9 360 м
[Cu Sc Ac trans]
+28.7 +25.6 83 +42 +43 опасность
перегрева
1013.0 993.5
12 14.04 ЮЗ 1 18 км 6/6 480 м
[Cu med, cong]
+33.5 +25.7 64 +49 +59 опасность
перегрева
1010.9 991.7
15 14.04 ЮЗ 3 18 км 5/5 500 м
[Cu med, cong]
+36.0 +25.5 55 +51 +56 опасность
перегрева
1008.0 989.0
18 14.04 ЮВ 1 15 км гроза без осадков 9/6 330 м
[Cb cap Cs]
+29.1 +23.1 70 +39 +39 очень
душно
1009.7 990.3 +36.0
21 14.04 штиль 0 7000 м гроза, ливневой дождь 9/5 330 м
[Cb cap Ac As]
+24.0 +22.9 94 +32 +32 очень
душно
1015.4 995.5
00 15.04 штиль 0 6000 м слаб. ливневой дождь, в посл. час гроза 9/6 330 м
[Sc Ac As]
+24.0 +22.6 92 +31 +31 очень
душно
1013.3 993.5 22
06 15.04 штиль 0 10 км {дождь} 9/3 330 м
[Sc Ac trans]
+23.2 +21.9 92 +31 +31 очень
душно
1011.7 991.8 +22.8 22
09 15.04 штиль 0 14 км 9/3 330 м
[Cu Sc Ac trans Ci sp]
+25.2 +22.9 87 +33 +39 очень
душно
1013.4 993.6
12 15.04 В 1 16 км 9/3 450 м
[Cu med, cong Ac trans Ci sp]
+30.5 +24.0 68 +42 +52 опасность
перегрева
1011.7 992.3
15 15.04 В 2 18 км 5/0
[Ac trans Ci sp]
+33.5 +24.1 58 +45 +56 опасность
перегрева
1008.2 989.1
18 15.04 В 1 14 км 6/0
[Ac trans Ci sp]
+31.6 +24.9 68 +45 +45 опасность
перегрева
1009.4 990.1 +33.5
21 15.04 штиль 0 12 км 6/0
[Ac trans]
+29.0 +24.8 78 +41 +41 опасность
перегрева
1011.4 991.9
03 16.04 штиль 0 12 км 9/0
[Ac trans]
+25.7 +24.1 91 +36 +36 очень
душно
1011.2 991.5
09 16.04 В 1 14 км 8/6 330 м
[Sc Ac trans Ci sp]
+28.5 +25.3 83 +42 +45 опасность
перегрева
1013.5 993.9
12 16.04 ЮЗ 1 15 км 8/6 360 м
[Cu Sc Ac trans]
+33.0 +25.7 66 +48 +55 опасность
перегрева
1011.2 992.0
15 16.04 ЮЗ 1 16 км 6/6 480 м
[Cu med, cong]
+34.8 +25.1 57 +48 +54 опасность
перегрева
1008.7 989.6
18 16.04 штиль 0 16 км 6/3 420 м
[Cb cap Cs]
+32.6 +25.5 66 +47 +47 опасность
перегрева
1007.1 987.9 +34.8
21 16.04 СВ 2 6000 м гроза, ливневой дождь 9/5 330 м
[Cb cap As op]
+23.8 +22.7 94 +31 +31 очень
душно
1013.9 994.0
00 17.04 ЮЗ 1 10 км гроза без осадков 9/6 330 м
[Cb cap Ac trans]
+24.4 +20.4 78 +30 +30 очень
душно
1013.3 993.5 22
03 17.04 штиль 0 10 км {гроза} 9/6 330 м
[Sc Ac trans]
+24.3 +23.3 94 +33 +33 очень
душно
1010.4 990.6
06 17.04 З 1 11 км {гроза} 9/4 330 м
[Sc Ac trans]
+24.5 +23.4 94 +33 +33 очень
душно
1010.7 990.9 +23.2 22
12 17.04 ЮЗ 1 15 км 6/6 400 м
[Cu Sc]
+31.7 +25.3 69 +46 +56 опасность
перегрева
1011.5 992.2
15 17.04 ЮЗ 2 18 км 6/6 480 м
[Cu med, cong]
+33.5 +25.6 63 +48 +53 опасность
перегрева
1008.1 989.0
18 17.04 Ю 1 18 км 6/3 450 м
[Cb cap Ci sp]
+32.5 +25.9 68 +48 +48 опасность
перегрева
1008.5 989.3 +33.5
21 17.04 штиль 0 11 км гроза без осадков 9/6 330 м
[Cb cap Ac trans]
+24.5 +22.8 90 +32 +32 очень
душно
1011.3 991.5
00 18.04 ЮЗ 1 11 км {гроза, дождь} 9/4 330 м
[Sc Ac trans Cs]
+24.0 +23.3 96 +32 +32 очень
душно
1012.0 992.2 5
03 18.04 штиль 0 11 км 9/3 330 м
[Sc Ac trans Cs]
+23.9 +22.7 93 +31 +31 очень
душно
1010.1 990.3
06 18.04 штиль 0 10 км 5/0
[Ac trans Ci sp]
+23.1 +22.4 96 +32 +32 очень
душно
1010.8 990.9 +22.7 5
09 18.04 Ю 1 15 км ясно +27.8 +24.7 83 +39 +52 опасность
солнечного
удара
1011.0 991.4
12 18.04 ЮВ 1 18 км 5/5 450 м
[Cu med, cong]
+33.3 +26.2 66 +49 +62 опасность
перегрева
1010.1 990.9
21 18.04 В 2 12 км 9/0
[Ac trans]
+26.1 +22.5 81 +34 +34 очень
душно
1011.3 991.6
03 19.04 штиль 0 15 км 6/1 330 м
[Sc Cs]
+25.5 +23.4 88 +34 +34 очень
душно
1009.8 990.1
06 19.04 штиль 0 12 км 5/0
[Ci sp]
+24.6 +23.5 94 +33 +33 очень
душно
1010.9 991.1 +24.2
12 19.04 ЮВ 1 18 км 9/6 450 м
[Cu med, cong Cs]
+33.0 +26.0 67 +49 +58 опасность
перегрева
1011.1 991.9
15 19.04 ЮВ 1 18 км 9/4 480 м
[Cu med, cong Cs]
+33.5 +25.9 65 +49 +56 опасность
перегрева
1009.2 990.0
18 19.04 ЮЗ 1 18 км 9/4 360 м
[Cu Sc Cs]
+30.5 +25.9 76 +45 +45 опасность
перегрева
1009.9 990.5 +33.6
21 19.04 штиль 0 10 км гроза без осадков 9/6 330 м
[Cb cap Ac trans]
+26.0 +24.3 90 +36 +36 очень
душно
1012.5 992.8
03 20.04 штиль 0 12 км 6/5 330 м
[Sc Ac trans Ci sp]
+26.0 +24.9 94 +37 +37 очень
душно
1011.0 991.3
06 20.04 штиль 0 12 км 9/9 330 м
[Sc]
+25.6 +24.5 94 +36 +36 очень
душно
1011.8 992.1 +24.2 6
12 20.04 ЮЗ 1 18 км 8/8 480 м
[Cu med, cong Ci sp]
+32.8 +25.7 66 +48 +53 опасность
перегрева
1011.4 992.2
15 20.04 З 2 18 км 8/6 480 м
[Cu med, cong Ci sp]
+34.5 +23.8 54 +46 +51 опасность
перегрева
1008.6 989.5
21 20.04 ЮВ 1 10 км гроза без осадков 9/6 330 м
[Cb cap Ac trans]
+25.5 +24.1 92 +35 +35 очень
душно
1013.2 993.5
00 21.04 ЮЗ 1 10 км {гроза, дождь} 9/6 330 м
[Frnb]
+25.5 +24.1 92 +35 +35 очень
душно
1012.6 992.9 4
03 21.04 ЮЗ 1 10 км 8/4 330 м
[Sc Ac trans Ci sp]
+25.5 +24.4 94 +36 +36 очень
душно
1010.5 990.8
06 21.04 штиль 0 10 км 8/3 330 м
[Sc Ac trans Cs]
+24.5 +23.4 94 +33 +33 очень
душно
1010.0 990.2 +24.2 4

 

Местоположение метеостанции Сефви Беквай (Гана): широта 6.20 долгота -2.33 высота над уровнем моря 172 м.

В архиве по умолчанию представлена погода в Сефви Беквай за последнюю неделю. Архивные данные за месяц целиком и за предыдущие месяцы, начиная с января 2011 года, Вы можете получить, выбрав интересующий диапазон дат из раскрывающегося списка и нажав кнопку "Ввод!".


*Определитесь, кто Вы:
робот инопланетянин человек

Внимание! Время в таблицах - всемирное. Для получения местного времени необходимо прибавить поправку, которая равна 1 ч.

Смотрите также архив погоды в соседних городах и на ближайших метеорологических станциях:

Погода в Кумаси (Гана) (99 км)
Погода в Суняни (Гана) (126 км)
Погода в Адиаке (Кот-д'Ивуар) (147 км)
Погода в Аксиме (Гана) (148 км)
Погода в Аким Ода (Гана) (152 км)
Погода Такоради (Гана) (159 км)
Погода в Уэнчи (Гана) (174 км)
Погода в Солтпонде (Гана) (178 км)
Погода в Абетифи (Гана) (182 км)
Погода в Абиджане (Кот-д'Ивуар) (206 км)

Пояснения к столбцам:

Ветер - указаны скорость ветра в м/с - средняя за 10 мин, порывы в срок и между сроками (в фигурных скобках) и направление, откуда дует ветер: С - северный, СВ - северо-восточный, В - восточный, ЮВ - юго-восточный, Ю - южный, ЮЗ - юго-западный, З - западный, СЗ - северо-западный.
Видимость - горизонтальная дальность видимости в метрах или километрах. При видимости от 1 до 10 км при отсутствии осадков обычно наблюдается дымка, при ухудшении видимости до 1 км и менее - туман. В сухую погоду видимость может ухудшаться дымом, пылью или мглою.
Явления - указаны атмосферные явления, наблюдавшиеся в срок или в последний час перед сроком; фигурными скобками обозначены явления, наблюдавшиеся между сроками (за 1-3 часа до срока); квадратными скобками обозначены град или гололедные отложения с указанием их диаметра в мм.
Облачность - указаны через наклонную черту общая и нижняя облачность в баллах и высота нижней границы облаков в метрах; квадратными скобками обозначены формы облаков: Ci - перистые, Cs - перисто-слоистые, Cc - перисто-кучевые, Ac - высококучевые, As - высокослоистые, Sc - слоисто-кучевые, Ns - слоисто-дождевые, Cu - кучевые, Cb - кучево-дождевые. Подробнее классификацию облаков см. в Атласе облаков (PDF).
T - Температура воздуха - температура, измеренная на высоте 2 м над землей.
Td - Температура точки росы - температура, при понижении до которой содержащийся в воздухе водяной пар достигнет насыщения.
f - Относительная влажность воздуха - влажноcть воздуха, измеренная на высоте 2 м над землей.
Te - Эффективная температура - температура, которую ощущает одетый по сезону человек в тени. Характеристика душности погоды. При расчете учитывается влияние влажности воздуха и скорости ветра на теплоощущения человека.
Tes - Эффективная температура на солнце - температура, которую ощущает человек, с поправкой на солнечный нагрев. Характеристика знойности погоды. Зависит от высоты солнца над горизонтом, облачности и скорости ветра. Ночью, в пасмурную погоду, а также при ветре 12 м/с и более поправка равна нулю.
P - Атмосферное давление - приведенное к уровню моря атмосферное давление.
Po - Атмосферное давление - измеренное на уровне метеостанции атмосферное давление.
Tmin - Минимальная температура - минимум температуры воздуха на высоте 2 м над землей.
Tmax - Максимальная температура - максимум температуры воздуха на высоте 2 м над землей.
R - Количество осадков - Количество выпавших осадков за период времени, мм. При наведении курсора мыши на число - период времени, за который выпало указанное количество осадков.
R24 - Количество осадков - Количество выпавших осадков за 24 часа, мм.
S - Снежный покров - Высота снежного покрова, см. При наведении курсора мыши на число - состояние снежного покрова и степень покрытия местности в баллах.